Location: Acton
(51.4942°N, 0.2232°W)
Time: 19:53:43
(UTC+00:00)

Daily predictions for brighter satellites

Satellite Brightness Start Highest point End
(mag) Time Altitude Azimuth Time Altitude Azimuth Time Altitude Azimuth
Meteor 1-21 4.4 18:41:50 10° N 18:47:22 56° ENE 18:52:54 10° SSE
COSMO-SKYMED 1 3.5 18:45:11 10° N 18:49:28 56° WNW 18:53:43 10° SSW
USA 229 DEB 4.2 18:44:34 10° WSW 18:50:53 64° NW 18:57:52 10° NE
USA 229 4.1 18:44:39 10° WSW 18:50:59 64° NW 18:57:58 10° NE
Cosmos 1707 2.6 18:48:51 10° N 18:52:40 74° ENE 18:56:27 10° SSE
Cosmos 2322 3.8 18:47:43 10° NNW 18:53:27 88° ENE 18:59:07 10° SSE
Okean 1-7 3.0 18:49:44 10° N 18:54:07 70° ENE 18:58:28 10° SSE
Cosmos 1954 Rocket 4.1 18:49:25 10° NNW 18:54:40 87° WSW 18:59:56 10° SSE
CZ-4B R/B 3.3 18:49:11 10° SSE 18:54:52 88° ENE 19:00:33 10° NNW
Cosmos 1727 Rocket 4.0 18:49:55 10° S 18:56:14 79° E 19:02:31 10° NNE
Cosmos 1674 2.6 18:53:21 10° N 18:57:04 67° ENE 19:00:46 10° SSE
Cosmos 1980 4.3 18:53:16 10° NNW 18:58:37 40° NE 19:03:57 10° ESE
Cosmos 2219 Rocket 2.6 18:54:23 10° NNW 19:00:04 70° WSW 19:05:42 10° SSE
Cosmos 2333 Rocket 3.3 18:56:26 10° NW 19:01:59 48° WSW 19:07:28 10° S
Cosmos 1933 Rocket 3.6 18:59:06 10° S 19:03:18 54° E 19:07:34 10° NNE
Cosmos 1975 3.2 18:59:40 10° SSE 19:03:25 41° E 19:07:11 10° NNE
SJ-6B 2.9 19:00:26 10° SSE 19:04:14 52° ENE 19:07:59 10° N
CZ-4C R/B 4.0 19:00:43 10° N 19:04:25 59° WNW 19:08:17 10° SSW
Meteor 2-9 Rocket 4.1 19:01:56 10° S 19:07:26 85° E 19:12:50 10° NNE
Cosmos 1726 3.2 19:05:46 10° SE 19:08:32 22° E 19:11:17 10° NE
CSL-04 Debris 4.3 19:04:33 10° SE 19:09:51 58° ENE 19:15:12 10° N
BREEZE-M DEB (TANK) 4.2 19:06:34 10° W 19:10:39 22° SW 19:12:53 10° S
Cosmos 2061 Rocket 4.3 19:04:45 10° N 19:11:03 51° ENE 19:17:16 10° SSE
USA 267 4.4 19:05:33 10° SSE 19:11:42 41° SW 19:17:53 10° WNW
Cosmos 1869 Rocket 4.0 19:09:02 10° SSE 19:13:00 37° E 19:16:59 10° NNE
COSMOS 2428 2.8 19:07:26 10° NNW 19:13:12 87° WSW 19:18:56 10° SSE
Cosmos 1833 4.5 19:08:35 10° SW 19:14:11 73° WNW 19:19:51 10° NNE
SL-14 R/B 3.8 19:11:59 10° N 19:15:34 36° ENE 19:19:08 10° SE
Cosmos 1459 Rocket 4.0 19:12:16 10° N 19:18:21 88° W 19:24:26 10° S
USA 281 3.4 19:14:00 10° NNE 19:20:37 82° WNW 19:27:11 10° SW
NOSS 3-2 (A) 4.2 19:13:21 10° NW 19:20:40 82° SW 19:29:15 10° SE
Cosmos 2297 Rocket 3.2 19:16:56 10° SSE 19:21:11 22° ESE 19:25:28 10° NE
ATLAS 3B R/B 4.2 19:14:58 10° WNW 19:21:21 32° N 19:28:02 10° NE
Cosmos 1867 4.3 19:19:48 10° S 19:24:26 29° ESE 19:29:06 10° ENE
IGS 5A 3.8 19:23:14 10° S 19:27:20 66° WSW 19:31:28 10° NNW
Cosmos 1725 Rocket 3.9 19:22:01 10° N 19:28:13 73° ENE 19:34:23 10° SSE
MINOTAUR 4 R/B 4.0 19:25:46 10° NNE 19:29:13 85° WNW 19:32:38 10° SSW
Resurs 01 Rocket 2.3 19:25:55 13° SE 19:29:24 37° ENE 19:33:29 10° N
JB-3 4.4 19:26:00 10° NNE 19:30:03 84° WNW 19:34:08 10° SSW
CZ-4C R/B 3.7 19:24:38 10° NW 19:30:32 37° NNE 19:36:50 13° E
Cosmos 1371 Rocket 4.3 19:25:38 10° SSW 19:30:53 73° WNW 19:36:09 10° NNE
CENTAUR R/B 3.5 19:23:04 10° NW 19:31:07 73° SW 19:40:07 10° SSE
NOSS 3-2 (C) 4.0 19:24:00 10° NW 19:31:13 78° NE 19:38:47 14° SE
Cosmos 1626 3.6 19:28:37 10° NNW 19:31:57 38° W 19:35:16 10° SSW
Cosmos 1733 3.2 19:29:23 10° S 19:33:03 53° E 19:36:45 10° NNE
Landsat 7 3.8 19:29:29 10° SSE 19:34:12 88° E 19:38:58 10° NNW
Cosmos 1271 Rocket 4.5 19:36:59 15° ENE 19:36:59 15° ENE 19:38:26 10° NE
Cosmos 1703 Rocket 4.4 19:32:01 10° NNW 19:36:24 55° W 19:40:43 10° S
Cosmos 2227 Rocket 3.4 19:35:02 16° SE 19:37:06 19° E 19:40:54 10° ENE
CZ-4 R/B 2.8 19:34:44 10° SSW 19:38:20 39° W 19:42:01 10° NNW
Cosmos 2056 Rocket 3.9 19:34:13 10° SW 19:39:18 66° WNW 19:44:25 10° NNE
Iridium 4 Rocket 2.8 19:37:51 10° N 19:42:05 77° E 19:46:14 10° S
Cosmos 192 4.4 19:38:04 10° S 19:42:55 58° ESE 19:47:48 10° NNE
Cosmos 2098 Rocket 3.8 19:37:50 10° S 19:43:17 81° E 19:49:53 10° NNE
Terra 3.7 19:42:45 13° ENE 19:44:00 14° NE 19:46:30 10° NNE
Cosmos 1802 Rocket 4.3 19:38:28 10° NNW 19:44:41 73° W 19:50:59 10° S
USA 238 DEB 3.9 19:37:41 10° NW 19:44:54 77° NE 19:50:50 19° SE
USA 238 3.9 19:37:47 10° NW 19:45:00 76° NE 19:50:55 19° SE
Geosat 4.0 19:40:51 15° SE 19:45:00 74° NE 19:50:03 10° NNW
SL-16 R/B 3.1 19:41:27 10° NNW 19:46:36 33° NE 19:49:39 20° E
Resurs 1-3 3.7 19:42:19 10° S 19:46:41 79° WSW 19:51:06 10° NNW
Cosmos 1674 Rocket 4.4 19:47:28 10° N 19:51:23 31° ENE 19:52:41 26° ESE
Cosmos 1850 Rocket 4.1 19:46:53 10° NNW 19:52:14 82° WSW 19:57:17 12° SSE
Meteor 2-10 3.8 19:49:24 10° S 19:54:24 76° E 19:59:31 10° NNE
Cosmos 1733 Rocket 3.5 19:53:01 22° SE 19:55:11 36° E 19:59:09 10° NNE
Okean-O 2.6 19:52:30 10° SSE 19:56:56 85° WSW 20:01:24 10° NNW
Okean 2 3.6 19:53:41 10° NNW 19:57:45 72° W 20:01:48 10° S
Cosmos 2016 Rocket 4.3 19:51:56 10° NNW 19:58:00 69° W 20:04:04 10° S
NOSS 0 Rocket 4.3 19:53:01 10° NW 19:59:09 65° WSW 20:05:06 11° SSE
CARTOSAT-1 3.9 19:58:45 29° ESE 20:00:30 45° ENE 20:04:38 10° N
SPOT 1/Viking Rocket 3.5 19:55:57 12° SSE 20:00:41 81° ENE 20:05:56 10° NNW
Cosmos 1110 Rocket 4.0 19:56:47 10° S 20:01:50 53° ESE 20:06:53 10° NNE
Cosmos 1378 Rocket 4.0 19:58:30 10° N 20:02:41 41° ENE 20:04:03 32° ESE
SPOT 5 3.9 20:02:23 25° E 20:03:30 27° ENE 20:07:34 10° N
Cosmos 2221 Rocket 3.8 19:59:28 10° N 20:03:48 48° ENE 20:05:26 32° SE
Cosmos 2123 Rocket 4.2 19:57:34 10° SSW 20:03:52 79° W 20:10:15 10° N
Okean O Rocket 3.6 20:01:33 10° SSW 20:05:25 29° W 20:09:18 10° NNW
Helios 1B 4.4 20:01:29 10° NNE 20:05:50 81° ESE 20:10:10 10° SSW
BREEZE-M DEB (TANK) 2.8 20:01:41 10° W 20:07:34 62° SSW 20:08:22 43° SE
ISS -3.8 20:04:33 10° W 20:07:55 85° N 20:08:42 50° E
GEOS 3 Rocket 4.1 20:03:08 10° NE 20:08:29 65° NW 20:13:49 10° WSW
CSL-04 Rocket 4.4 20:08:19 10° S 20:13:45 55° W 20:19:12 10° NNW
Cosmos 1447 Rocket 4.4 20:10:43 10° S 20:16:50 63° E 20:22:56 10° NNE
Cosmos 1452 Rocket 3.4 20:11:34 10° SSW 20:16:51 89° ESE 20:22:11 10° NNE
USA 215 3.7 20:10:35 10° ENE 20:17:02 61° NNW 20:23:26 10° W
USA 186 4.1 20:14:58 10° SSW 20:17:29 23° W 20:20:02 10° NW
ADEOS Rocket 4.0 20:15:26 27° E 20:18:00 36° ENE 20:24:17 10° N
Cosmos 1766 3.1 20:17:38 45° SSE 20:18:32 61° E 20:22:18 10° NNE
Cosmos 1331 Rocket 3.8 20:13:41 10° SSW 20:18:46 67° ESE 20:23:55 10° NNE
Cosmos 2237 Rocket 2.4 20:15:59 10° NW 20:21:36 68° WSW 20:25:11 23° SSE
H-2A R/B 2.9 20:23:55 43° E 20:24:36 47° ENE 20:28:53 10° N
MetOp-B 4.1 20:29:53 37° SE 20:31:59 71° ENE 20:37:21 10° NNW
ATLAS CENTAUR R/B 4.1 20:16:54 10° SW 20:32:47 79° SE 20:40:01 10° ENE
Cosmos 968 Rocket 3.4 20:30:17 10° NNW 20:35:29 82° WSW 20:37:26 39° SSE
Lacrosse 5 rocket 2.4 20:32:04 10° SSW 20:34:34 30° SSW 20:34:34 30° SSW
SJ 16-02 2.4 20:32:26 10° N 20:36:14 30° NE 20:36:14 30° NE
Meteor 1-12 Rocket 4.3 20:38:17 36° SSE 20:40:31 59° E 20:46:08 10° NNE
FALCON 9 R/B 4.2 20:24:49 10° WSW 20:41:53 31° SSW 20:45:16 24° SSE
Cosmos 1726 3.9 20:39:52 10° SW 20:43:00 30° WNW 20:46:10 10° N
ERS-1 Rocket 3.2 20:44:49 47° E 20:45:15 48° ENE 20:50:04 10° N
Cosmos 1513 Rocket 4.3 20:39:21 10° N 20:45:27 77° E 20:47:45 41° SSE
Meteor 1-24 Rocket 3.8 20:39:43 10° N 20:45:37 66° ENE 20:47:15 47° SE
Meteor 2-15 4.3 20:43:37 10° N 20:49:48 76° ENE 20:51:48 45° SSE
BREEZE-M DEB (TANK) 3.0 20:43:19 10° WNW 20:49:54 71° SSW 20:50:42 56° SE
Landsat 5 4.0 20:46:38 10° N 20:50:23 52° WNW 20:53:40 13° SW
Ariane Rocket 2.9 20:49:52 55° SSE 20:51:00 83° ENE 20:56:06 10° NNW
Meteor 2-8 Rocket 4.4 20:45:26 10° N 20:51:35 72° ENE 20:53:21 48° SE
Spot 2 4.4 20:51:12 61° ESE 20:51:45 66° ENE 20:56:36 10° N
Cosmos 482 Debris 4.3 20:47:59 10° WNW 20:52:59 78° WSW 20:52:59 78° WSW
Cosmos 1943 4.1 20:48:35 10° NNW 20:53:37 32° NE 20:54:31 31° ENE
Meteor 2-15 Rocket 4.4 20:49:33 10° N 20:55:43 66° ENE 20:57:02 52° SE
Spot 2 Rocket 3.4 21:01:35 64° E 21:01:50 65° ENE 21:06:55 10° N
Cosmos 1302 Rocket 3.8 21:02:14 60° S 21:03:10 77° ESE 21:08:29 10° NNE
Cosmos 2297 Rocket 2.3 20:59:01 10° SW 21:04:40 74° WNW 21:10:21 10° NNE
Resurs 01 Rocket 3.3 21:03:27 18° SW 21:05:56 30° W 21:09:52 10° NNW
Cosmos 2034 Rocket 3.9 21:00:48 10° N 21:07:00 66° ENE 21:07:51 59° ESE
Cosmos 1867 3.9 21:02:16 10° SW 21:07:41 65° NW 21:13:09 10° NE
Cosmos 1271 Rocket 3.6 21:11:48 47° NW 21:11:48 47° NW 21:15:07 10° N
Cosmos 2219 3.3 21:13:55 56° ENE 21:13:55 56° ENE 21:18:33 10° NE
Meteor 2-5 Rocket 3.8 21:07:14 10° NNW 21:13:02 76° W 21:14:30 52° S
SPOT 3 Rocket 3.4 21:12:40 74° S 21:13:10 87° WSW 21:18:27 10° NNW
ATLAS 3B R/B 3.9 21:07:10 10° NW 21:14:03 39° NNE 21:17:41 25° ENE
Cosmos 1470 3.9 21:15:43 38° N 21:15:43 38° N 21:18:14 10° N
deb Chang Zheng 4 4.4 21:16:08 41° N 21:16:08 41° N 21:18:44 10° NNW
CZ-4C R/B 2.9 21:13:05 10° NW 21:19:59 80° NE 21:21:59 55° ESE
Cosmos 2227 Rocket 2.1 21:14:44 10° SSW 21:20:25 86° WNW 21:26:08 10° NNE
Terra 2.0 21:21:29 66° NNE 21:21:29 66° NNE 21:25:37 10° NNW
Cosmos 1503 Rocket 4.3 21:22:10 10° NNW 21:26:52 57° NE 21:26:52 57° NE
SL-16 R/B 2.4 21:25:28 10° NW 21:31:04 60° WSW 21:31:32 58° SW
Cosmos 1486 Rocket 4.1 21:33:17 10° NNW 21:38:14 72° WNW 21:38:14 72° WNW
SPOT 5 3.6 21:41:34 47° W 21:41:34 47° W 21:46:01 10° NNW
ISS -0.6 21:41:22 10° W 21:41:38 12° W 21:41:38 12° W
H-2A R/B 4.2 21:50:21 10° NNE 21:51:45 20° NNE 21:51:45 20° NNE
Cosmos 2279 Rocket 4.4 21:51:07 10° N 21:56:22 50° NE 21:56:22 50° NE
USA 215 3.6 21:57:51 45° ENE 21:59:38 58° N 22:06:02 10° WNW
ADEOS Rocket 3.5 22:02:22 55° SW 22:03:09 58° W 22:10:06 10° NNW
Cosmos 2263 Rocket 3.8 22:13:19 24° NE 22:13:19 24° NE 22:15:28 10° NNE
ARIANE 5 R/B 4.4 22:16:23 28° NNW 22:16:23 28° NNW 22:18:31 10° NNW
SJ 16-02 3.3 22:10:48 10° NW 22:13:07 27° WNW 22:13:07 27° WNW
ATLAS 2AS CENTAUR R/B 4.4 22:29:01 21° ENE 22:29:01 21° ENE 22:31:23 10° NE
Cosmos 1634 Rocket 4.4 22:27:35 10° NNW 22:33:09 59° WNW 22:33:09 59° WNW
Cosmos 1943 4.2 22:32:30 10° NW 22:36:19 42° NW 22:36:19 42° NW
NOSS 3-4 (A) 4.0 22:42:49 52° NNW 22:42:49 52° NNW 22:48:59 10° NE
NOSS 3-4 (C) 4.0 22:43:07 52° NNW 22:43:07 52° NNW 22:49:04 10° NE
ATLAS CENTAUR R/B 3.8 22:36:58 10° W 22:48:15 58° NNW 22:49:44 48° NNE
Cosmos 2297 Rocket 4.5 22:45:27 10° W 22:49:42 21° NW 22:53:59 10° NNE
Terra 4.3 23:00:13 15° WNW 23:00:13 15° WNW 23:02:01 10° NW
Cosmos 2082 Rocket 4.5 22:57:28 10° N 23:00:58 16° NNE 23:02:28 15° NE
NOSS 3-1 (A) 4.5 22:56:15 10° NW 23:02:51 49° NNE 23:03:39 48° NE
Cosmos 2227 Rocket 4.3 23:00:47 10° W 23:05:18 24° NW 23:09:50 10° NNE
ATLAS 3B R/B 3.0 22:58:13 10° NW 23:04:56 72° NNW 23:04:56 72° NNW
CZ-4C R/B 4.0 23:01:51 10° NW 23:07:09 34° W 23:07:09 34° W
Cosmos 1833 Rocket 4.3 23:08:57 10° NNW 23:12:54 29° NNE 23:12:54 29° NNE
Cosmos 2344 3.9 23:10:07 10° NW 23:18:35 83° SW 23:18:50 83° SSW
USA 215 4.2 23:45:10 40° WNW 23:45:10 40° WNW 23:49:04 10° WNW
NOSS 3-1 (C) 4.4 23:42:57 10° NW 23:48:11 55° NW 23:48:11 55° NW
Cosmos 2263 Rocket 3.9 23:54:56 28° NNW 23:54:56 28° NNW 23:59:09 10° NNE
